Location: Newark
(52.3735°N, 16.9806°E)
Time: 04:28:07
(UTC+00:00)

LilacSat-2 - Pass Details

Date: 02 December 2021
Orbit: 511 x 532 km, 97.5° (Epoch: 16 January)

Event Time Altitude Azimuth Distance (km) Brightness Sun altitude
Rises 16:16:23 0° 186° (S) 2,625 ? -13.6°
Reaches altitude 10° 16:18:35 10° 195° (SSW) 1,747 ? -13.9°
Maximum altitude 16:22:04 35° 263° (W) 853 ? -14.4°
Drops below altitude 10° 16:25:37 10° 331° (NNW) 1,774 ? -14.9°
Sets 16:27:52 0° 340° (NNW) 2,672 ? -15.3°
